This demonstration page uses our WeatherBlox Daily Observations layout. Learn more.

39.92423, -83.80882

Hourly Observations for May 21, 2015

Temp ( °F °C ) Dew Point ( °F °C ) Humidity (%) Winds ( mph kmh ) Pressure ( in mb ) Visibility ( mi km ) Precip ( " mm )
12:56 am 00:56 Cloudy with Light Rain 49 9.4 46 7.7 89 89 NNW 8 13 30.04 1017 5 8.0467 0 0.0254
1:56 am 01:56 Cloudy with Mist and Fog 48 8.8 45 7.2 90 90 NNE 9 15 30.02 1017 6 9.65604 0 0.0254
2:56 am 02:56 Cloudy with Mist and Fog 47 8.3 46 7.7 96 96 NNE 9 15 30.01 1016 6 9.65604 0 0
3:56 am 03:56 Cloudy with Mist and Fog 47 8.3 45 7.2 93 93 NE 8 13 30.01 1016 6 9.65604 0 0
4:56 am 04:56 Cloudy with Mist and Fog 47 8.3 44 6.6 89 89 NNE 6 9 30.01 1016 6 9.65604 0 0
5:56 am 05:56 Cloudy with Mist and Fog 46 7.7 43 6.1 90 90 N 7 11 30.01 1016 6 9.65604 0 0
6:56 am 06:56 Mostly Cloudy with Mist and Fog 47 8.3 43 6.1 86 86 N 7 11 30.03 1017 5 8.0467 0 0
7:56 am 07:56 Cloudy with Mist and Fog 47 8.3 44 6.6 89 89 N 7 11 30.05 1018 5 8.0467 0 0
8:56 am 08:56 Cloudy with Haze 50 10 43 6.1 77 77 N 7 11 30.05 1018 5 8.0467 0 0
9:56 am 09:56 Cloudy with Haze 52 11.1 43 6.1 72 72 N 6 9 30.05 1018 5 8.0467 0 0
10:56 am 10:56 Cloudy with Haze 53 11.6 42 5.5 66 66 NW 5 7 30.05 1018 5 8.0467 0 0
11:03 am 11:03 Cloudy with Haze 54 12 43 6 67 67 N 5 7 30.06 1018 5 8.0467 0 0
11:26 am 11:26 Mostly Cloudy with Haze 54 12 43 6 67 67 NNW 7 11 30.06 1018 5 8.0467 0 0
11:56 am 11:56 Mostly Cloudy with Haze 53 11.6 42 5.5 66 66 N 5 7 30.06 1018 5 8.0467 0 0
12:56 pm 12:56 Mostly Cloudy with Haze 57 13.8 41 5 56 56 NNW 12 19 30.05 1018 5 8.0467 0 0
1:56 pm 13:56 Cloudy with Haze 56 13.3 40 4.4 55 55 NNW 9 15 30.05 1018 5 8.0467 0 0
2:56 pm 14:56 Cloudy with Haze 55 12.7 40 4.4 57 57 NW 12 19 30.06 1018 5 8.0467 0 0
3:56 pm 15:56 Cloudy with Haze 54 12.2 41 5 62 62 WNW 12 19 30.08 1019 5 8.0467 0 0
4:56 pm 16:56 Cloudy with Haze 55 12.7 42 5.5 62 62 WNW 13 20 30.09 1019 5 8.0467 0 0
5:56 pm 17:56 Hazy 57 13.8 42 5.5 58 58 WNW 12 19 30.08 1019 5 8.0467 0 0
6:56 pm 18:56 Hazy 58 14.4 42 5.5 55 55 WNW 10 17 30.07 1018 5 8.0467 0 0
7:56 pm 19:56 Hazy 57 13.8 41 5 56 56 WNW 12 19 30.07 1018 6 9.65604 0 0
8:56 pm 20:56 Hazy 52 11.1 42 5.5 69 69 W 6 9 30.09 1019 5 8.0467 0 0
9:56 pm 21:56 Clear 49 9.4 42 5.5 77 77 WSW 5 7 30.1 1019 7 11.26538 0 0
10:56 pm 22:56 Clear 47 8.3 42 5.5 83 83 SW 5 7 30.11 1020 7 11.26538 0 0
11:56 pm 23:56 Clear 47 8.3 41 5 80 80 SSW 8 13 30.12 1020 7 11.26538 0 0

Powered by AerisWeather